• In Österreich
  • Länderverzeichnis
  • Für 7 Tage
  • Wassertemperatur
  • Satellitenkarten
  • Wetterkarte
  • News
  • Widgets
  • user-avatar
    Anmelden

    Stündliche Wetter Kericho

    Heute, 20 Januar, Samstag

    Zeit Temperatur Niederschläge Wind Luftdruck Luftfeuchtigkeit
    00:00 +15°C° 0,2 mm 1 m/S 597 mmHg 87%
    01:00 +14°C° 0,2 mm 2 m/S 597 mmHg 89%
    02:00 +13°C° 0 mm 1 m/S 596 mmHg 93%
    03:00 +13°C° 0 mm 2 m/S 596 mmHg 92%
    04:00 +13°C° 0 mm 2 m/S 596 mmHg 92%
    05:00 +13°C° 0 mm 2 m/S 596 mmHg 91%
    06:00 +15°C° 0 mm 2 m/S 597 mmHg 81%
    07:00 +17°C° 0 mm 2 m/S 598 mmHg 71%
    08:00 +21°C° 0 mm 1 m/S 600 mmHg 61%
    09:00 +21°C° 0,1 mm 2 m/S 600 mmHg 56%
    10:00 +23°C° 0,1 mm 2 m/S 600 mmHg 51%
    11:00 +24°C° 0,1 mm 2 m/S 600 mmHg 45%
    12:00 +24°C° 0,1 mm 2 m/S 600 mmHg 46%
    13:00 +24°C° 0,1 mm 2 m/S 599 mmHg 47%
    14:00 +23°C° 0 mm 1 m/S 598 mmHg 50%
    15:00 +22°C° 0,5 mm 1 m/S 598 mmHg 58%
    16:00 +20°C° 0,5 mm 1 m/S 597 mmHg 67%
    17:00 +19°C° 0,5 mm 1 m/S 597 mmHg 76%
    18:00 +18°C° 0,6 mm 1 m/S 597 mmHg 80%
    19:00 +16°C° 0,6 mm 1 m/S 597 mmHg 84%
    20:00 +16°C° 0,6 mm 1 m/S 598 mmHg 87%
    21:00 +15°C° 0,6 mm 1 m/S 598 mmHg 89%
    22:00 +15°C° 0,6 mm 1 m/S 598 mmHg 90%
    23:00 +14°C° 0,6 mm 1 m/S 598 mmHg 92%

    Morgen, 21 Januar, Sonntag

    Zeit Temperatur Niederschläge Wind Luftdruck Luftfeuchtigkeit
    00:00 +14°C° 0 mm 1 m/S 598 mmHg 91%
    01:00 +14°C° 0 mm 1 m/S 597 mmHg 91%
    02:00 +14°C° 0 mm 1 m/S 597 mmHg 90%
    03:00 +13°C° 0 mm 2 m/S 597 mmHg 88%
    04:00 +13°C° 0 mm 2 m/S 597 mmHg 87%
    05:00 +12°C° 0 mm 2 m/S 597 mmHg 85%
    06:00 +14°C° 0 mm 2 m/S 598 mmHg 75%
    07:00 +16°C° 0 mm 2 m/S 599 mmHg 65%
    08:00 +19°C° 0 mm 2 m/S 599 mmHg 55%
    09:00 +21°C° 0 mm 2 m/S 600 mmHg 46%
    10:00 +25°C° 0 mm 2 m/S 601 mmHg 37%
    11:00 +28°C° 0 mm 2 m/S 602 mmHg 28%
    12:00 +28°C° 0 mm 2 m/S 601 mmHg 27%
    13:00 +28°C° 0 mm 2 m/S 601 mmHg 27%
    14:00 +28°C° 0 mm 3 m/S 600 mmHg 26%
    15:00 +25°C° 0,1 mm 2 m/S 599 mmHg 36%
    16:00 +23°C° 0,1 mm 2 m/S 598 mmHg 45%
    17:00 +20°C° 0,1 mm 2 m/S 597 mmHg 54%
    18:00 +20°C° 0,3 mm 1 m/S 597 mmHg 61%
    19:00 +18°C° 0,3 mm 1 m/S 597 mmHg 67%
    20:00 +16°C° 0,3 mm 1 m/S 598 mmHg 74%
    21:00 +15°C° 0,3 mm 1 m/S 598 mmHg 76%
    22:00 +15°C° 0,3 mm 1 m/S 598 mmHg 78%
    23:00 +14°C° 0,3 mm 1 m/S 598 mmHg 79%

    übermorgen, 22 Januar, Montag

    Zeit Temperatur Niederschläge Wind Luftdruck Luftfeuchtigkeit
    00:00 +13°C° 0 mm 2 m/S 597 mmHg 79%
    01:00 +13°C° 0 mm 2 m/S 597 mmHg 79%
    02:00 +13°C° 0 mm 2 m/S 596 mmHg 79%
    03:00 +13°C° 0 mm 2 m/S 596 mmHg 75%
    04:00 +13°C° 0 mm 2 m/S 596 mmHg 70%
    05:00 +13°C° 0 mm 2 m/S 596 mmHg 66%
    06:00 +15°C° 0 mm 2 m/S 597 mmHg 58%
    07:00 +17°C° 0 mm 2 m/S 599 mmHg 50%
    08:00 +19°C° 0 mm 3 m/S 600 mmHg 41%
    09:00 +23°C° 0 mm 2 m/S 600 mmHg 35%
    10:00 +25°C° 0 mm 2 m/S 601 mmHg 29%
    11:00 +28°C° 0 mm 2 m/S 601 mmHg 23%
    12:00 +28°C° 0 mm 2 m/S 601 mmHg 23%
    13:00 +28°C° 0 mm 2 m/S 600 mmHg 23%
    14:00 +28°C° 0 mm 2 m/S 599 mmHg 23%
    15:00 +26°C° 0 mm 2 m/S 598 mmHg 28%
    16:00 +24°C° 0 mm 1 m/S 597 mmHg 33%
    17:00 +22°C° 0 mm 1 m/S 597 mmHg 39%
    18:00 +21°C° 0 mm 1 m/S 597 mmHg 43%
    19:00 +20°C° 0 mm 1 m/S 597 mmHg 48%
    20:00 +18°C° 0 mm 1 m/S 598 mmHg 52%
    21:00 +17°C° 0 mm 2 m/S 598 mmHg 56%
    22:00 +16°C° 0 mm 2 m/S 598 mmHg 60%
    23:00 +15°C° 0 mm 2 m/S 598 mmHg 64%

    23 Januar, Dienstag

    Zeit Temperatur Niederschläge Wind Luftdruck Luftfeuchtigkeit
    00:00 +15°C° 0 mm 2 m/S 597 mmHg 64%
    01:00 +14°C° 0 mm 2 m/S 597 mmHg 65%
    02:00 +14°C° 0 mm 2 m/S 596 mmHg 66%
    03:00 +14°C° 0 mm 2 m/S 596 mmHg 64%
    04:00 +14°C° 0 mm 2 m/S 596 mmHg 62%
    05:00 +14°C° 0 mm 2 m/S 596 mmHg 60%
    06:00 +16°C° 0 mm 2 m/S 597 mmHg 53%
    07:00 +18°C° 0 mm 2 m/S 598 mmHg 46%
    08:00 +20°C° 0 mm 2 m/S 600 mmHg 40%
    09:00 +23°C° 0 mm 2 m/S 600 mmHg 34%
    10:00 +26°C° 0 mm 2 m/S 601 mmHg 28%
    11:00 +28°C° 0 mm 2 m/S 601 mmHg 22%
    12:00 +28°C° 0 mm 2 m/S 600 mmHg 22%
    13:00 +28°C° 0 mm 2 m/S 599 mmHg 22%
    14:00 +29°C° 0 mm 2 m/S 599 mmHg 22%
    15:00 +26°C° 0 mm 2 m/S 598 mmHg 29%
    16:00 +24°C° 0 mm 2 m/S 597 mmHg 36%
    17:00 +21°C° 0 mm 2 m/S 596 mmHg 43%
    18:00 +21°C° 0 mm 1 m/S 597 mmHg 49%
    19:00 +20°C° 0 mm 1 m/S 597 mmHg 55%
    20:00 +16°C° 0 mm 0 m/S 597 mmHg 61%
    21:00 +16°C° 0 mm 1 m/S 597 mmHg 63%
    22:00 +16°C° 0 mm 1 m/S 597 mmHg 66%
    23:00 +15°C° 0 mm 1 m/S 597 mmHg 68%

    24 Januar, Mittwoch

    Zeit Temperatur Niederschläge Wind Luftdruck Luftfeuchtigkeit
    00:00 +14°C° 0 mm 1 m/S 596 mmHg 69%
    01:00 +14°C° 0 mm 1 m/S 596 mmHg 71%
    02:00 +14°C° 0 mm 1 m/S 595 mmHg 73%
    03:00 +13°C° 0 mm 1 m/S 595 mmHg 73%
    04:00 +13°C° 0 mm 1 m/S 595 mmHg 73%
    05:00 +13°C° 0 mm 1 m/S 595 mmHg 73%
    06:00 +16°C° 0 mm 1 m/S 597 mmHg 64%
    07:00 +19°C° 0 mm 1 m/S 598 mmHg 55%
    08:00 +21°C° 0 mm 1 m/S 599 mmHg 46%
    09:00 +24°C° 0 mm 1 m/S 600 mmHg 40%
    10:00 +26°C° 0 mm 1 m/S 600 mmHg 34%
    11:00 +28°C° 0 mm 2 m/S 601 mmHg 28%
    12:00 +27°C° 0 mm 2 m/S 600 mmHg 31%
    13:00 +26°C° 0 mm 1 m/S 598 mmHg 34%
    14:00 +25°C° 0 mm 1 m/S 597 mmHg 37%
    15:00 +24°C° 0 mm 1 m/S 597 mmHg 42%
    16:00 +23°C° 0 mm 1 m/S 596 mmHg 47%
    17:00 +22°C° 0 mm 1 m/S 596 mmHg 53%
    18:00 +20°C° 0 mm 1 m/S 596 mmHg 57%
    19:00 +17°C° 0 mm 0 m/S 597 mmHg 61%
    20:00 +16°C° 0 mm 0 m/S 597 mmHg 66%
    21:00 +16°C° 0 mm 1 m/S 597 mmHg 68%
    22:00 +16°C° 0 mm 1 m/S 597 mmHg 70%
    23:00 +15°C° 0 mm 1 m/S 597 mmHg 72%

    25 Januar, Donnerstag

    Zeit Temperatur Niederschläge Wind Luftdruck Luftfeuchtigkeit
    00:00 +15°C° 0 mm 1 m/S 596 mmHg 75%
    01:00 +14°C° 0 mm 1 m/S 596 mmHg 77%
    02:00 +13°C° 0 mm 1 m/S 595 mmHg 80%
    03:00 +13°C° 0 mm 1 m/S 595 mmHg 81%
    04:00 +13°C° 0 mm 1 m/S 596 mmHg 81%
    05:00 +13°C° 0 mm 1 m/S 596 mmHg 82%
    06:00 +16°C° 0 mm 1 m/S 597 mmHg 72%
    07:00 +19°C° 0 mm 1 m/S 598 mmHg 62%
    08:00 +22°C° 0 mm 1 m/S 600 mmHg 53%
    09:00 +23°C° 0,1 mm 1 m/S 600 mmHg 48%
    10:00 +24°C° 0,1 mm 1 m/S 600 mmHg 43%
    11:00 +26°C° 0,1 mm 2 m/S 600 mmHg 38%
    12:00 +25°C° 0 mm 1 m/S 599 mmHg 41%
    13:00 +24°C° 0 mm 1 m/S 598 mmHg 43%
    14:00 +24°C° 0 mm 1 m/S 597 mmHg 45%
    15:00 +23°C° 0 mm 1 m/S 597 mmHg 49%
    16:00 +22°C° 0 mm 1 m/S 597 mmHg 52%
    17:00 +21°C° 0 mm 1 m/S 597 mmHg 56%
    18:00 +20°C° 0,1 mm 1 m/S 597 mmHg 60%
    19:00 +19°C° 0,1 mm 1 m/S 597 mmHg 64%
    20:00 +16°C° 0,1 mm 0 m/S 597 mmHg 68%
    21:00 +18°C° 0 mm 1 m/S 597 mmHg 71%
    22:00 +16°C° 0 mm 1 m/S 597 mmHg 73%
    23:00 +15°C° 0 mm 1 m/S 597 mmHg 75%
    Mehr zeigen